• In Switzerland
  • List of Countries
  • For 7 days
  • Water Temperature
  • Satellite Maps
  • Weather Map
  • Weather Widgets
  • user-avatar
    Login

    Hourly Weather Hamilton

    Today, 22 November, Wednesday

    Time Temperature Precipitation Wind Pressure Humidity
    00:00 +14°C° 0 mm 2 mps 762 mmHg 86%
    01:00 +13°C° 0 mm 2 mps 762 mmHg 87%
    02:00 +13°C° 0 mm 2 mps 762 mmHg 88%
    03:00 +12°C° 0 mm 2 mps 762 mmHg 89%
    04:00 +13°C° 0 mm 1 mps 763 mmHg 88%
    05:00 +13°C° 0 mm 1 mps 763 mmHg 86%
    06:00 +14°C° 0 mm 1 mps 763 mmHg 82%
    07:00 +16°C° 0 mm 1 mps 763 mmHg 72%
    08:00 +19°C° 0 mm 1 mps 763 mmHg 63%
    09:00 +21°C° 0 mm 1 mps 763 mmHg 54%
    10:00 +23°C° 0 mm 1 mps 763 mmHg 50%
    11:00 +24°C° 0 mm 1 mps 763 mmHg 47%
    12:00 +25°C° 0 mm 1 mps 763 mmHg 44%
    13:00 +25°C° 0 mm 1 mps 763 mmHg 45%
    14:00 +25°C° 0 mm 2 mps 763 mmHg 47%
    15:00 +25°C° 0 mm 2 mps 763 mmHg 48%
    16:00 +24°C° 0 mm 2 mps 763 mmHg 52%
    17:00 +23°C° 0 mm 2 mps 763 mmHg 57%
    18:00 +21°C° 0 mm 2 mps 763 mmHg 62%
    19:00 +19°C° 0 mm 2 mps 764 mmHg 68%
    20:00 +18°C° 0 mm 1 mps 765 mmHg 75%
    21:00 +14°C° 0 mm 0 mps 765 mmHg 82%
    22:00 +14°C° 0 mm 1 mps 765 mmHg 85%
    23:00 +14°C° 0 mm 1 mps 766 mmHg 88%

    Tomorrow, 23 November, Thursday

    Time Temperature Precipitation Wind Pressure Humidity
    00:00 +13°C° 0 mm 1 mps 766 mmHg 90%
    01:00 +13°C° 0 mm 1 mps 766 mmHg 92%
    02:00 +12°C° 0 mm 1 mps 766 mmHg 95%
    03:00 +11°C° 0 mm 0 mps 766 mmHg 97%
    04:00 +12°C° 0 mm 0 mps 766 mmHg 96%
    05:00 +12°C° 0 mm 0 mps 766 mmHg 94%
    06:00 +12°C° 0 mm 0 mps 766 mmHg 93%
    07:00 +16°C° 0 mm 1 mps 766 mmHg 83%
    08:00 +20°C° 0 mm 1 mps 766 mmHg 72%
    09:00 +22°C° 0 mm 1 mps 766 mmHg 61%
    10:00 +24°C° 0 mm 1 mps 766 mmHg 57%
    11:00 +25°C° 0 mm 2 mps 766 mmHg 53%
    12:00 +27°C° 0 mm 2 mps 766 mmHg 49%
    13:00 +27°C° 0 mm 2 mps 766 mmHg 49%
    14:00 +27°C° 0 mm 3 mps 766 mmHg 50%
    15:00 +27°C° 0 mm 3 mps 765 mmHg 51%
    16:00 +25°C° 0 mm 3 mps 765 mmHg 55%
    17:00 +24°C° 0 mm 3 mps 765 mmHg 59%
    18:00 +21°C° 0 mm 3 mps 766 mmHg 64%
    19:00 +19°C° 0 mm 2 mps 766 mmHg 72%
    20:00 +18°C° 0 mm 1 mps 766 mmHg 81%
    21:00 +15°C° 0 mm 1 mps 767 mmHg 89%
    22:00 +15°C° 0 mm 1 mps 767 mmHg 92%
    23:00 +13°C° 0 mm 0 mps 767 mmHg 94%

    Day after tomorrow, 24 November, Friday

    Time Temperature Precipitation Wind Pressure Humidity
    00:00 +13°C° 0 mm 0 mps 767 mmHg 96%
    01:00 +12°C° 0 mm 0 mps 767 mmHg 96%
    02:00 +12°C° 0 mm 0 mps 767 mmHg 97%
    03:00 +12°C° 0 mm 0 mps 767 mmHg 97%
    04:00 +12°C° 0 mm 0 mps 767 mmHg 96%
    05:00 +13°C° 0 mm 0 mps 767 mmHg 95%
    06:00 +13°C° 0 mm 0 mps 767 mmHg 94%
    07:00 +16°C° 0 mm 0 mps 767 mmHg 83%
    08:00 +19°C° 0 mm 0 mps 767 mmHg 72%
    09:00 +23°C° 0 mm 1 mps 767 mmHg 62%
    10:00 +25°C° 0 mm 1 mps 767 mmHg 58%
    11:00 +26°C° 0 mm 2 mps 767 mmHg 55%
    12:00 +27°C° 0 mm 2 mps 766 mmHg 52%
    13:00 +27°C° 0 mm 2 mps 766 mmHg 53%
    14:00 +26°C° 0 mm 2 mps 766 mmHg 55%
    15:00 +26°C° 0 mm 2 mps 765 mmHg 56%
    16:00 +25°C° 0 mm 2 mps 765 mmHg 58%
    17:00 +24°C° 0 mm 2 mps 765 mmHg 61%
    18:00 +23°C° 0 mm 2 mps 765 mmHg 63%
    19:00 +20°C° 0 mm 2 mps 765 mmHg 72%
    20:00 +19°C° 0 mm 1 mps 766 mmHg 80%
    21:00 +16°C° 0 mm 1 mps 766 mmHg 88%
    22:00 +15°C° 0 mm 1 mps 766 mmHg 90%
    23:00 +15°C° 0 mm 1 mps 766 mmHg 93%

    25 November, Saturday

    Time Temperature Precipitation Wind Pressure Humidity
    00:00 +14°C° 0 mm 1 mps 766 mmHg 95%
    01:00 +14°C° 0 mm 1 mps 766 mmHg 95%
    02:00 +14°C° 0 mm 1 mps 765 mmHg 95%
    03:00 +14°C° 0 mm 1 mps 765 mmHg 95%
    04:00 +14°C° 0 mm 0 mps 765 mmHg 94%
    05:00 +14°C° 0 mm 0 mps 765 mmHg 92%
    06:00 +15°C° 0 mm 0 mps 765 mmHg 90%
    07:00 +17°C° 0 mm 0 mps 766 mmHg 81%
    08:00 +19°C° 0 mm 0 mps 766 mmHg 71%
    09:00 +21°C° 0 mm 0 mps 766 mmHg 62%
    10:00 +24°C° 0 mm 1 mps 765 mmHg 58%
    11:00 +25°C° 0 mm 1 mps 765 mmHg 54%
    12:00 +27°C° 0 mm 1 mps 765 mmHg 50%
    13:00 +27°C° 0 mm 2 mps 764 mmHg 51%
    14:00 +26°C° 0 mm 2 mps 764 mmHg 52%
    15:00 +26°C° 0 mm 2 mps 764 mmHg 53%
    16:00 +25°C° 0.1 mm 2 mps 764 mmHg 58%
    17:00 +24°C° 0.1 mm 2 mps 764 mmHg 62%
    18:00 +23°C° 0.1 mm 2 mps 764 mmHg 67%
    19:00 +21°C° 0 mm 1 mps 764 mmHg 72%
    20:00 +19°C° 0 mm 1 mps 764 mmHg 77%
    21:00 +16°C° 0 mm 1 mps 765 mmHg 83%
    22:00 +16°C° 0 mm 1 mps 765 mmHg 84%
    23:00 +15°C° 0 mm 0 mps 765 mmHg 86%

    26 November, Sunday

    Time Temperature Precipitation Wind Pressure Humidity
    00:00 +14°C° 0 mm 0 mps 765 mmHg 88%
    01:00 +14°C° 0.1 mm 0 mps 764 mmHg 89%
    02:00 +14°C° 0.1 mm 0 mps 764 mmHg 91%
    03:00 +14°C° 0.1 mm 0 mps 764 mmHg 92%
    04:00 +14°C° 0.1 mm 0 mps 764 mmHg 92%
    05:00 +15°C° 0.1 mm 1 mps 764 mmHg 92%
    06:00 +16°C° 0.1 mm 1 mps 764 mmHg 92%
    07:00 +18°C° 0.3 mm 1 mps 765 mmHg 90%
    08:00 +19°C° 0.3 mm 1 mps 765 mmHg 89%
    09:00 +19°C° 0.3 mm 1 mps 765 mmHg 88%
    10:00 +21°C° 0.2 mm 1 mps 765 mmHg 80%
    11:00 +21°C° 0.2 mm 2 mps 765 mmHg 73%
    12:00 +24°C° 0.2 mm 2 mps 765 mmHg 66%
    13:00 +24°C° 0.8 mm 2 mps 764 mmHg 70%
    14:00 +23°C° 0.8 mm 2 mps 764 mmHg 74%
    15:00 +23°C° 0.8 mm 2 mps 764 mmHg 79%
    16:00 +21°C° 0.9 mm 2 mps 764 mmHg 82%
    17:00 +21°C° 0.9 mm 1 mps 764 mmHg 86%
    18:00 +20°C° 0.9 mm 1 mps 764 mmHg 90%
    19:00 +19°C° 0.2 mm 1 mps 765 mmHg 91%
    20:00 +18°C° 0.2 mm 1 mps 765 mmHg 93%
    21:00 +18°C° 0.2 mm 1 mps 766 mmHg 94%
    22:00 +16°C° 0.2 mm 1 mps 766 mmHg 95%
    23:00 +16°C° 0.2 mm 1 mps 766 mmHg 96%

    27 November, Monday

    Time Temperature Precipitation Wind Pressure Humidity
    00:00 +15°C° 0.2 mm 1 mps 766 mmHg 97%
    01:00 +15°C° 0.1 mm 1 mps 766 mmHg 98%
    02:00 +14°C° 0.1 mm 1 mps 765 mmHg 98%
    03:00 +14°C° 0.1 mm 1 mps 765 mmHg 98%
    04:00 +14°C° 0 mm 1 mps 766 mmHg 98%
    05:00 +15°C° 0 mm 1 mps 766 mmHg 98%
    06:00 +15°C° 0 mm 1 mps 766 mmHg 97%
    07:00 +18°C° 0 mm 1 mps 766 mmHg 88%
    08:00 +19°C° 0 mm 1 mps 767 mmHg 78%
    09:00 +20°C° 0 mm 2 mps 767 mmHg 68%
    10:00 +21°C° 0 mm 2 mps 767 mmHg 65%
    11:00 +23°C° 0 mm 2 mps 767 mmHg 62%
    12:00 +23°C° 0 mm 2 mps 767 mmHg 60%
    13:00 +23°C° 0.1 mm 2 mps 766 mmHg 60%
    14:00 +24°C° 0.1 mm 2 mps 766 mmHg 59%
    15:00 +24°C° 0.1 mm 2 mps 766 mmHg 59%
    16:00 +23°C° 0.1 mm 2 mps 766 mmHg 62%
    17:00 +21°C° 0.1 mm 2 mps 766 mmHg 64%
    18:00 +21°C° 0.1 mm 2 mps 766 mmHg 67%
    19:00 +19°C° 0 mm 2 mps 767 mmHg 73%
    20:00 +17°C° 0 mm 2 mps 767 mmHg 80%
    21:00 +15°C° 0 mm 1 mps 768 mmHg 87%
    22:00 +14°C° 0 mm 1 mps 768 mmHg 90%
    23:00 +13°C° 0 mm 1 mps 768 mmHg 94%
    Show more